Zurück zum Katalog

GORIZONT 7

AktivKommunikationGEO
NORAD 14160·PAYLOAD·🇷🇺 Russia

Gestartet Jun 30, 1983 von Baikonur Cosmodrome

Loading…

TLE

AktuellSource: Space-Track

Epoche: Sep 14, 2026, 14:19 UTC

1 14160U 83066A   26257.59720110 -.00000111  00000-0  00000-0 0  9996
2 14160   9.1644 311.9923 0013364 345.5277  22.6331  0.98347987155638

Verfolge GORIZONT 7 in Echtzeit mit AllMySat

Download on the App Store